Terminal Aerodrome Forecast
Issued by NWS Houston/Galveston, TX

Home | Current Version | Previous Version | Text Only | Print | Product List | Glossary On
Versions: 1 2 3 4 5 6 7 8 9 10 11 12 13 14 15 16 17 18 19 20 21 22 23 24 25 26 27 28 29 30 31 32 33 34 35 36 37 38 39 40 41 42 43 44 45 46 47 48 49 50
000
FTUS44 KHGX 251720
TAFCLL
TAF
KCLL 251720Z 2518/2618 16014G24KT P6SM VCTS SCT025 BKN040CB
      TEMPO 2519/2523 VRB35KT TSRA BKN025CB
     FM260200 15009KT P6SM BKN050
     FM260700 17004KT 6SM BR SCT006 BKN012
     FM261500 19011KT P6SM BKN015=

USA.gov is the U.S. government's official web portal to all federal, state and local government web resources and services.